www.pogodaiklimat.ru

Погода и климат >> Архив погоды >> Россия >> Якутия >> Охотский Перевоз


ПОГОДА в Охотском Перевозе

  • Прогноз погоды в Охотском Перевозе
  • Монитор погоды в Охотском Перевозе

АРХИВ ПОГОДЫ в Охотском Перевозе

Время (UTC), дата Ветер
(напр.,м/с)
 
Видим.   Явления Облачность Т
(С)
Тd
(С)
f
(%)
Тe
(С)
Тes
(С)
Комфортность P
(гПа)
Po
(гПа)
Тmin
(С)
Tmax
(С)
R
(мм)
R24
(мм)
S
(см)
21 19.03 штиль 0 10 км ясно -36.4 -38.8 78 -36 -36 опасность
обморожения
1024.9 1004.3 -36.5 45
00 20.03 Ю 1 20 км ясно -34.0 -36.2 80 -39 -35 опасность
обморожения
1025.1 1004.7 -37.5
03 20.03 ЮВ 1 20 км ясно -24.7 -28.6 70 -28 -22 1024.2 1004.5
06 20.03 С 1 20 км ясно -16.0 -23.0 55 -19 -16 1023.0 1004.0
09 20.03 С 1 20 км ясно -13.5 -22.9 45 -16 -16 1023.1 1004.3 -13.0
12 20.03 СЗ 1 10 км ясно -23.1 -28.0 64 -26 -26 1025.0 1005.5
15 20.03 З 1 10 км ясно -29.0 -31.4 80 -33 -33 опасность
обморожения
1025.7 1005.7
18 20.03 штиль 0 10 км ясно -33.5 -35.9 79 -34 -34 опасность
обморожения
1026.2 1005.8
21 20.03 штиль 0 10 км ясно -36.3 -38.4 81 -36 -36 опасность
обморожения
1027.0 1006.4 -36.4 44
00 21.03 ЮВ 1 20 км ясно -33.6 -36.6 74 -38 -35 опасность
обморожения
1027.0 1006.6 -37.1
03 21.03 СВ 1 50 км ясно -23.2 -27.2 70 -27 -20 1025.5 1006.0
06 21.03 СВ 3 50 км ясно -15.3 -22.3 55 -22 -20 1023.5 1004.6
09 21.03 СВ 3 20 км ясно -14.4 -22.6 50 -21 -21 1023.2 1004.3 -13.0
12 21.03 штиль 0 10 км ясно -23.1 -27.2 69 -23 -23 1024.1 1004.6
15 21.03 штиль 0 10 км ясно -29.1 -31.6 79 -29 -29 1024.3 1004.3
18 21.03 штиль 0 10 км ясно -33.0 -35.4 79 -33 -33 опасность
обморожения
1024.2 1003.9
21 21.03 штиль 0 10 км ясно -35.8 -38.1 79 -36 -36 опасность
обморожения
1024.2 1003.6 -36.0 43
03 22.03 Ю 3 20 км ясно -21.5 -25.5 70 -29 -25 1021.7 1002.4
06 22.03 СВ 1 20 км ясно -13.9 -22.1 50 -16 -13 1019.6 1000.9
09 22.03 Ю 3 20 км ясно -13.5 -22.9 45 -20 -20 1018.3 999.6 -12.1
12 22.03 С 1 10 км ясно -26.8 -31 -31 опасность
обморожения
1018.4 999.1
15 22.03 С 1 10 км ясно -28.0 -31.2 74 -32 -32 опасность
обморожения
1018.4 998.6
18 22.03 штиль 0 10 км ясно -32.3 -34.6 80 -32 -32 опасность
обморожения
1017.4 997.3
21 22.03 штиль 0 10 км ясно -35.8 -38.1 79 -36 -36 опасность
обморожения
1016.5 996.1 -35.9 43
00 23.03 В 1 20 км ясно -33.4 -35.6 80 -38 -34 опасность
обморожения
1014.7 994.6 -36.9
03 23.03 С 2 20 км 3/0
[Ci fib]
-24.0 -27.2 75 -30 -25 1011.4 992.1
06 23.03 С 1 20 км 3/0
[Ci fib]
-12.2 -21.7 45 -14 -11 1007.6 989.2
09 23.03 С 1 20 км 8/0
[]
-12.8 -22.3 45 -15 -15 1005.7 987.3 -11.0
12 23.03 СЗ 1 10 км 1/0
[Ci fib]
-21.0 -25.9 65 -24 -24 1006.7 987.6
15 23.03 штиль 0 10 км 1/0
[Ci fib]
-27.0 -29.5 79 -27 -27 1006.6 987.1
18 23.03 штиль 0 10 км ясно -31.7 -34.1 79 -32 -32 опасность
обморожения
1006.8 987.0
21 23.03 штиль 0 20 км ясно -34.6 -36.8 80 -35 -35 опасность
обморожения
1007.0 986.9 -34.7 43
00 24.03 С 1 20 км ясно -31.4 -33.6 81 -36 -32 опасность
обморожения
1007.1 987.3 -36.0
03 24.03 С 2 50 км ясно -20.6 -25.5 65 -27 -21 1006.3 987.3
06 24.03 С 3 50 км ясно -9.3 -21.6 36 -15 -12 1005.2 987.1
09 24.03 С 3 20 км ясно -8.7 -22.1 33 -14 -14 1005.8 987.6 -8.2
12 24.03 С 1 10 км ясно -19.8 -25.6 60 -23 -23 1008.4 989.4
15 24.03 штиль 0 10 км ясно -26.6 -29.7 75 -27 -27 1009.8 990.2
18 24.03 штиль 0 10 км ясно -31.0 -33.4 79 -31 -31 опасность
обморожения
1011.3 991.4
21 24.03 Ю 1 10 км ясно -29.4 -31.8 80 -33 -33 опасность
обморожения
1012.4 992.6 -31.2 43
00 25.03 Ю 2 20 км ясно -28.4 -30.8 80 -36 -32 опасность
обморожения
1013.2 993.5 -32.1
03 25.03 Ю 3 50 км ясно -18.3 -23.3 65 -26 -21 1012.5 993.5
06 25.03 С 2 50 км ясно -10.8 -19.2 50 -15 -12 1012.1 993.7
09 25.03 штиль 0 20 км ясно -9.5 -20.2 41 -10 -10 1012.4 994.1 -8.9
12 25.03 С 1 10 км ясно -17.3 -24.2 55 -20 -20 1014.2 995.3
15 25.03 ЮВ 1 10 км ясно -21.7 -24.9 75 -25 -25 1015.7 996.5
18 25.03 ЮЗ 2 10 км ясно -24.7 -25.9 90 -31 -31 опасность
обморожения
1016.5 997.0
21 25.03 штиль 0 10 км ясно -28.6 -29.8 89 -29 -29 1017.1 997.3 -28.6 43
00 26.03 Ю 3 20 км ясно -24.3 -25.5 90 -33 -30 опасность
обморожения
1017.0 997.5 -30.1
03 26.03 ЮВ 3 20 км ясно -15.8 -19.2 75 -23 -18 1015.6 996.8
06 26.03 С 2 20 км ясно -12.4 -18.6 60 -17 -14 1014.6 996.1
09 26.03 С 1 20 км ясно -11.4 -18.7 55 -14 -13 1015.0 996.6 -11.3
12 26.03 Ю 1 10 км ясно -18.4 -22.5 70 -21 -21 1014.7 995.7
15 26.03 штиль 0 10 км ясно -25.2 -27.7 80 -25 -25 1014.6 995.1
18 26.03 штиль 0 10 км ясно -29.2 -30.9 85 -29 -29 1014.2 994.4

 

Местоположение метеостанции Охотский Перевоз (Якутия, Россия): широта 61.87 долгота 135.50 высота над уровнем моря 141 м.

В архиве по умолчанию представлена погода в Охотском Перевозе за последнюю неделю. Архивные данные за месяц целиком и за предыдущие месяцы, начиная с января 2011 года, Вы можете получить, выбрав интересующий диапазон дат из раскрывающегося списка и нажав кнопку "Ввод!".


*Определитесь, кто Вы:
робот инопланетянин человек

Внимание! Время в таблицах - всемирное. Для получения местного времени необходимо прибавить поправку, которая равна 9 ч.

Смотрите также архив погоды в соседних городах и на ближайших метеорологических станциях:

Погода в Ытык-Кюёле (Якутия, Россия) (118 км)
Погода в Крест-Хальджае (Якутия, Россия) (120 км)
Погода в Теплом Ключе (Якутия, Россия) (121 км)
Погода в Чурапче (Якутия, Россия) (153 км)
Погода в Усть-Мае (Якутия, Россия) (179 км)
Погода в Амге (Якутия, Россия) (220 км)
Погода в Томпо (Якутия, Россия) (232 км)
Погода в Верхоянском Перевозе (Якутия, Россия) (241 км)
Погода в Восточной (Якутия, Россия) (259 км)
Погода в Югоренке (Якутия, Россия) (260 км)

Пояснения к столбцам:

Ветер - указаны скорость ветра в м/с - средняя за 10 мин, порывы в срок и между сроками (в фигурных скобках) и направление, откуда дует ветер: С - северный, СВ - северо-восточный, В - восточный, ЮВ - юго-восточный, Ю - южный, ЮЗ - юго-западный, З - западный, СЗ - северо-западный.
Видимость - горизонтальная дальность видимости в метрах или километрах. При видимости от 1 до 10 км при отсутствии осадков обычно наблюдается дымка, при ухудшении видимости до 1 км и менее - туман. В сухую погоду видимость может ухудшаться дымом, пылью или мглою.
Явления - указаны атмосферные явления, наблюдавшиеся в срок или в последний час перед сроком; фигурными скобками обозначены явления, наблюдавшиеся между сроками (за 1-3 часа до срока); квадратными скобками обозначены град или гололедные отложения с указанием их диаметра в мм.
Облачность - указаны через наклонную черту общая и нижняя облачность в баллах и высота нижней границы облаков в метрах; квадратными скобками обозначены формы облаков: Ci - перистые, Cs - перисто-слоистые, Cc - перисто-кучевые, Ac - высококучевые, As - высокослоистые, Sc - слоисто-кучевые, Ns - слоисто-дождевые, Cu - кучевые, Cb - кучево-дождевые. Подробнее классификацию облаков см. в Атласе облаков (PDF).
T - Температура воздуха - температура, измеренная на высоте 2 м над землей.
Td - Температура точки росы - температура, при понижении до которой содержащийся в воздухе водяной пар достигнет насыщения.
f - Относительная влажность воздуха - влажноcть воздуха, измеренная на высоте 2 м над землей.
Te - Эффективная температура - температура, которую ощущает одетый по сезону человек в тени. Характеристика душности погоды. При расчете учитывается влияние влажности воздуха и скорости ветра на теплоощущения человека.
Tes - Эффективная температура на солнце - температура, которую ощущает человек, с поправкой на солнечный нагрев. Характеристика знойности погоды. Зависит от высоты солнца над горизонтом, облачности и скорости ветра. Ночью, в пасмурную погоду, а также при ветре 12 м/с и более поправка равна нулю.
P - Атмосферное давление - приведенное к уровню моря атмосферное давление.
Po - Атмосферное давление - измеренное на уровне метеостанции атмосферное давление.
Tmin - Минимальная температура - минимум температуры воздуха на высоте 2 м над землей.
Tmax - Максимальная температура - максимум температуры воздуха на высоте 2 м над землей.
R - Количество осадков - Количество выпавших осадков за период времени, мм. При наведении курсора мыши на число - период времени, за который выпало указанное количество осадков.
R24 - Количество осадков - Количество выпавших осадков за 24 часа, мм.
S - Снежный покров - Высота снежного покрова, см. При наведении курсора мыши на число - состояние снежного покрова и степень покрытия местности в баллах.